Location: Forli
(44.2227°N, 12.0407°E)
Time: 18:22:45
(UTC+01:00)

ISS - Pass Details

Date: 14 February 2026
Orbit: 416 x 427 km, 51.6° (Epoch: 6 March)

Event Time Altitude Azimuth Distance (km) Brightness Sun altitude
Exits shadow 06:19:15 - 235° (SW) 1,646 -1.2 -10.2°
Reaches altitude 10° 06:19:38 10° 235° (SW) 1,489 -1.4 -10.2°
Maximum altitude 06:22:59 82° 147° (SSE) 424 -3.7 -9.6°
Drops below altitude 10° 06:26:20 10° 60° (ENE) 1,493 -0.1 -9.0°
Sets 06:28:26 0° 60° (ENE) 2,359 0.9 -8.6°
